Weather Roundup
Issued by NWS

Home | Current Version | Previous Version | Graphics & Text | Print | Product List | Glossary On
Versions: 1 2 3 4 5 6 7 8 9 10 11 12 13 14 15 16 17 18 19 20 21 22 23 24 25 26 27 28 29 30 31 32 33 34 35 36 37 38 39 40 41 42 43 44 45 46 47 48 49 50
000
NZUS93 KARX 210110
HRRWXR

CURRENT HOURLY OBSERVATIONS ACROSS
MUCH OF THE UPPER MISSISSIPPI VALLEY
NATIONAL WEATHER SERVICE LA CROSSE WI
800 PM CDT MON OCT 20 2014


...SOUTHEAST MINNESOTA...


CITY           SKY/WX    TMP DP  RH WIND       PRES   REMARKS
ROCHESTER      CLEAR     51  40  65 N8        30.03R
ROCHESTER/MAYO FAIR      55  38  53 N5        30.03R
WINONA         CLEAR     54  41  62 NE5       30.04R
AUSTIN         CLEAR     52  39  62 N3        30.02R
ALBERT LEA     CLEAR     52  39  62 NW5       30.03R
DODGE CENTER   CLEAR     50  41  71 N6        30.03R
PRESTON        CLEAR     50  40  70 N6        30.03R
OWATONNA       CLEAR     43  36  75 CALM      30.03R
FARIBAULT      CLEAR     43  37  81 N3        30.04R
$$

...ELSEWHERE IN MINNESOTA...


CITY           SKY/WX    TMP DP  RH WIND       PRES   REMARKS
MINNEAPOLIS    CLEAR     53  39  59 N3        30.04R
INTNL FALLS    CLOUDY    45  36  70 NE5       30.10R
DULUTH         CLOUDY    47  36  65 N3        30.08R
RED WING       CLEAR     54  39  58 NE6       30.03R
REDWOOD FALLS  CLEAR     58  39  49 NW5       30.03S
MANKATO        CLEAR     54  34  47 N6        30.03S
WORTHINGTON    CLEAR     48  34  57 N3        30.06R
FAIRMONT       CLEAR     52  36  54 NW3       30.03S
$$

...SOUTHWEST WISCONSIN...


CITY           SKY/WX    TMP DP  RH WIND       PRES   REMARKS
LA CROSSE      CLEAR     51  40  65 N3        30.03R
PRAIRIE DU CHI CLEAR     53  41  64 NE6       30.01R
BOSCOBEL       CLEAR     53  41  63 E3        30.01R
LONE ROCK      MOCLDY    57  39  51 NE8       30.01R
PLATTEVILLE    PTCLDY    49  41  73 NE7       30.01R
FORT MC COY    MOCLDY    50  38  62 N5        30.04R
CAMP DOUGLAS   MOCLDY    52  41  66 N6        30.03R
VIROQUA        FAIR      48  39  71 CALM      30.02R
WIS DELLS      CLOUDY    52  38  58 N3        30.02R
$$

...ELSEWHERE IN WISCONSIN...


CITY           SKY/WX    TMP DP  RH WIND       PRES   REMARKS
MILWAUKEE      MOCLDY    53  42  66 NW8       29.98R
MADISON        CLOUDY    52  42  69 N3        30.01R
GREEN BAY      CLOUDY    48  44  86 N9        30.00R
EAU CLAIRE     CLOUDY    51  38  60 N6        30.04R
BLACK RVR FLS  CLOUDY    50  39  66 CALM      30.03R
MEDFORD        CLOUDY    46  39  76 N3        30.03R
WAUSAU         CLOUDY    47  40  76 CALM      30.02R
WIS RAPIDS     CLOUDY    51  40  65 N6        30.04R
MARSHFIELD     CLOUDY    50  41  71 N3        30.03R
RICE LAKE      CLOUDY    49  39  68 N3        30.07R
$$

...NORTHEAST IOWA...


CITY           SKY/WX    TMP DP  RH WIND       PRES   REMARKS
DECORAH        PTCLDY    54  43  66 N6        30.00S
MASON CITY     CLEAR     48  40  73 NW6       30.03S
CHARLES CITY   CLEAR     52  41  66 N7        30.02R
OELWEIN        CLEAR     54  41  62 N7        30.01R
$$

...ELSEWHERE IN IOWA...


CITY           SKY/WX    TMP DP  RH WIND       PRES   REMARKS
DES MOINES     CLEAR     61  39  44 NW3       30.03R
IOWA CITY      CLEAR     52  43  71 NW5       30.00R
FORT DODGE     CLEAR     48  37  66 CALM      30.03F
$$

...NORTHERN ILLINOIS...


CITY           SKY/WX    TMP DP  RH WIND       PRES   REMARKS
CHICAGO-OHARE  MOCLDY    53  45  74 N9        29.97R
CHICAGO-MIDWAY CLOUDY    56  47  71 N8        29.97R
MOLINE         CLEAR     52  42  69 CALM      29.97R
ROCKFORD       PTCLDY    53  39  59 NE9       30.01R
PEORIA         PTCLDY    55  46  71 CALM      29.97R
$$

NOTE: "FAIR" INDICATES FEW OR NO CLOUDS BELOW 12,000 FEET WITH NO
SIGNIFICANT WEATHER AND/OR OBSTRUCTIONS TO VISIBILITY. WIND
SPEEDS ARE IN MILES-PER-HOUR.



USA.gov is the U.S. government's official web portal to all federal, state and local government web resources and services.